Hourly Data Report for June 07, 2021

CARIBOU POINT (AUT)
NOVA SCOTIA
Current Station Operator: ECCC - MSC

45°46'00.000" N
62°41'00.000" W
2.40 m
8200774
71415
WBK

Download Data

Hourly Data (June 2021)
Hourly Data Report for June 7, 2021
TIME
LST
Temp Definition
°C
Dew Point Definition
°C
Rel Hum Definition
%
Precip. Amount Definition
mm

Wind Dir Definition
10's deg

Wind Spd Definition
km/h
Visibility Definition
km
Stn Press Definition
kPa
Hmdx Definition


Wind Chill Definition


Weather Definition


00:00 13.0 11.1 88 0.0 15 14   101.57     LegendNANA
01:00 13.7 11.1 84 0.0 16 17   101.53     LegendNANA
02:00 14.5 12.9 90 0.0 19 15   101.50     LegendNANA
03:00 15.2 13.0 87 0.0 20 22   101.42     LegendNANA
04:00 15.1 11.1 77 0.0 20 20   101.45     LegendNANA
05:00 14.5 10.5 77 0.0 20 19   101.44     LegendNANA
06:00 15.1 10.7 75 0.0 20 12   101.44     LegendNANA
07:00 16.5 12.7 78 0.0 21 10   101.41     LegendNANA
08:00 19.5 15.3 76 0.0 19 17   101.37     LegendNANA
09:00 22.1 16.1 69 0.0 21 10   101.30 27   LegendNANA
10:00 24.4 17.0 63 0.0 23 10   101.28 30   LegendNANA
11:00 26.5 18.0 60 0.0 21 10   101.23 33   LegendNANA
12:00 30.0 19.7 54 0.0 23 7   101.19 37   LegendNANA
13:00 25.0 17.2 62 0.0 33 9   101.13 30   LegendNANA
14:00 32.2 19.3 46 0.0 25 13   101.08 39   LegendNANA
15:00 32.8 18.5 43 0.0 25 18   101.00 39   LegendNANA
16:00 31.5 17.8 44 0.0 25 22   100.93 37   LegendNANA
17:00 31.3 17.5 44 0.0 25 17   100.86 37   LegendNANA
18:00 30.2 16.4 43 0.0 25 22   100.84 35   LegendNANA
19:00 29.8 16.6 45 0.0 26 17   100.86 35   LegendNANA
20:00 28.6 16.1 47 0.0 26 17   100.85 33   LegendNANA
21:00 27.4 15.3 48 0.0 24 14   100.88 32   LegendNANA
22:00 26.4 15.3 50 0.0 25 15   100.91 31   LegendNANA
23:00 25.5 15.1 52 0.0 24 15   100.91 30   LegendNANA

Notes on Data Quality.

Legend

  • E = Estimated
  • M = Missing
  • NA = Not Available*
  • [empty] = Indicates an unobserved value
Date modified: